Location: Armidale
(30.5016°S, 151.6662°E)
Time: 01:13:57
(UTC+10:00)

Hubble Space Telescope - Pass Details

Date: 06 August 2020
Orbit: 536 x 540 km, 28.5° (Epoch: 28 September)

Event Time Altitude Azimuth Distance (km) Brightness Sun altitude
Rises 18:56:51 0° 286° (WNW) 2,677 5.9 -20.5°
Reaches altitude 10° 18:59:08 10° 290° (WNW) 1,788 4.5 -21.0°
Maximum altitude 19:03:12 57° 8° (N) 634 1.0 -21.8°
Enters shadow 19:03:26 56° 24° (NNE) 641 0.9 -21.9°
